Location: Zapote
(9.9191°N, 84.0597°W)
Time: 17:46:10
(UTC-06:00)

Transit 2A - Pass Details

Date: 10 March 2021
Orbit: 602 x 957 km, 66.7° (Epoch: 16 April)

Event Time Altitude Azimuth Distance (km) Brightness Sun altitude
Rises 03:35:28 0° 312° (NW) 2,893 - -32.9°
Reaches altitude 10° 03:38:17 10° 293° (WNW) 2,028 - -32.2°
Maximum altitude 03:41:21 18° 250° (WSW) 1,618 - -31.5°
Drops below altitude 10° 03:44:36 10° 207° (SSW) 2,150 - -30.7°
Sets 03:47:43 0° 189° (S) 3,141 - -29.9°
